Home > Weather > Uppsala > Past weeks

Flag for Sweden Weather for the Past 2 Weeks in Uppsala, Sweden

Now
64 °F

Passing clouds.


Feels Like: 64 °F
Forecast: 43 / 61 °F
Wind: 10 mph from West

Location: Stockholm / Arlanda

Current Time: May 4, 2016 at 6:33:58 PM

Latest Report: May 4, 2016 at 6:20 PM


Visibility: N/A

Pressure: 30.18 "Hg

Humidity: 37%

Dew Point: 37 °F

Location of UppsalaLocation

Historic Weather in Uppsala — Graph

°F

Uppsala Temperature Yesterday

Maximum temperature yesterday: 66 °F (at 3:20 PM)
Minimum temperature yesterday: 37 °F (at 3:20 AM)
Average temperature yesterday: 54 °F

High & Low Weather Summary for the Past Weeks

 TemperatureHumidityPressure
High66 °F (May 3, 3:20 PM)100% (Apr 21, 9:20 PM)30.36 "Hg (Apr 21, 9:20 PM)
Low27 °F (Apr 24, 1:20 AM)16% (May 2, 4:50 PM)29.59 "Hg (Apr 25, 5:20 AM)
Average42 °F71%29.94 "Hg
* Reported Apr 19 5:20 PM — May 4 5:20 PM, Uppsala, Weather by CustomWeather, © 2016

Note: Actual official high and low records may vary slightly from our data, if they occured in-between our weather recording intervals... More about our weather records

Advertising

Uppsala Weather History for the Previous 24 Hours

Scroll right to see more
 ConditionsComfort  
Time TempWeatherWind HumidityBarometerVisibility
5:20 PM
Wed, May 4
66 °FSunny.13 mph37%30.18 "Hg10 mi
4:20 PM66 °FSunny.13 mph37%30.18 "Hg10 mi
3:20 PM64 °FPassing clouds.13 mph43%30.18 "HgN/A
2:50 PM66 °FPassing clouds.12 mph43%30.18 "HgN/A
2:20 PM64 °FPassing clouds.8 mph46%30.18 "HgN/A
1:20 PM64 °FPassing clouds.8 mph43%30.18 "HgN/A
12:50 PM63 °FPassing clouds.7 mph45%30.18 "HgN/A
12:20 PM63 °FPassing clouds.7 mph52%30.18 "HgN/A
11:20 AM61 °FSunny.8 mph52%30.18 "Hg10 mi
10:50 AM59 °FPassing clouds.7 mph55%30.18 "HgN/A
9:50 AM55 °FPassing clouds.6 mph63%30.15 "HgN/A
9:20 AM54 °FPassing clouds.5 mph63%30.15 "HgN/A
8:20 AM50 °FSunny.2 mph67%30.15 "Hg10 mi
7:20 AM46 °FSunny.5 mph71%30.12 "Hg10 mi
6:20 AM45 °FSunny.6 mph76%30.12 "Hg10 mi
5:50 AM41 °FSunny.5 mph87%30.12 "Hg10 mi
5:20 AM41 °FClear.5 mph81%30.12 "Hg10 mi
4:50 AM39 °FClear.3 mph87%30.07 "Hg10 mi
4:20 AM39 °FClear.3 mph87%30.09 "Hg10 mi
3:50 AM41 °FClear.5 mph81%30.09 "Hg10 mi
2:20 AM43 °FClear.5 mph76%30.09 "Hg10 mi
1:50 AM45 °FClear.5 mph71%30.09 "Hg10 mi
11:50 PM
Tue, May 3
48 °FClear.7 mph71%30.09 "Hg10 mi
11:20 PM48 °FClear.7 mph71%30.07 "Hg10 mi
10:50 PM50 °FClear.7 mph62%30.07 "Hg10 mi
10:20 PM52 °FClear.6 mph58%30.07 "Hg10 mi
9:50 PM54 °FClear.7 mph54%30.07 "Hg10 mi
9:20 PM55 °FSunny.8 mph47%30.07 "Hg10 mi
8:50 PM57 °FSunny.9 mph44%30.04 "Hg10 mi
8:20 PM59 °FSunny.9 mph34%30.04 "Hg10 mi
7:50 PM59 °FSunny.10 mph39%30.04 "Hg10 mi
7:20 PM61 °FSunny.10 mph34%30.04 "Hg10 mi
6:50 PM63 °FSunny.12 mph30%30.04 "Hg10 mi
6:20 PM64 °FSunny.10 mph32%30.04 "Hg10 mi
Weather by CustomWeather, © 2016

See weather overviewHow to use our weather pages